Weather History for KPEX - January, 2014

Change the Weather History Date:

Thursday, January 2, 2014

  Actual Average (KLJF) Record (KLJF)
Temperature  
Mean Temperature -10 °F -  
Max Temperature -4 °F 22 °F 44 °F (1998)
Min Temperature -16 °F 3 °F -23 °F (1979)
Degree Days  
Heating Degree Days 75    
Moisture  
Dew Point -18 °F    
Average Humidity 69    
Maximum Humidity 79    
Minimum Humidity 53    
Precipitation  
Precipitation 0.00 in - - ()
Sea Level Pressure  
Sea Level Pressure 30.41 in    
Wind  
Wind Speed 1 mph (North)    
Max Wind Speed 6 mph    
Max Gust Speed -    
Visibility 10 miles    
Events      
Averages and records for this station are not official NWS values.
T = Trace of Precipitation, MM = Missing Value Source: NWS Daily Summary

Daily Weather History Graph

Daily Weather History Graph

Search for Another Location

Airport or City:

Trip Planner

Search our weather history database for the weather conditions in past years. The results will help you decide how hot, cold, wet, or windy it might be!

Date:

Astronomy

Jan. 02, 2014 Rise Set
Actual Time 7:58 AM CST 4:47 PM CST
Civil Twilight 7:24 AM CST 5:21 PM CST
Nautical Twilight 6:47 AM CST 5:58 PM CST
Astronomical Twilight 6:11 AM CST 6:34 PM CST
Moon 8:35 AM CST (1/2) 6:52 PM CST (1/2)
Length of Visible Light 9h 56m
Length of Day
8h 49m
Waxing Crescent, 3% of the Moon is Illuminated
Jan 2
Waxing Crescent
Jan 7
First Quarter
Jan 15
Full
Jan 23
Last Quarter
Jan 30
New

Hourly Weather History & Observations

Time (CST) Temp. Windchill Dew Point Humidity Pressure Visibility Wind Dir Wind Speed Gust Speed Precip Events Conditions
12:12 AM -4.9 °F - -13.5 °F 66% 30.40 in 10.0 mi Calm Calm - N/A   Overcast
12:33 AM -5.4 °F - -13.9 °F 67% 30.40 in 10.0 mi Calm Calm - N/A   Overcast
12:52 AM -6.0 °F - -14.1 °F 68% 30.40 in 10.0 mi Calm Calm - N/A   Mostly Cloudy
1:12 AM -6.9 °F - -14.6 °F 69% 30.40 in 10.0 mi Calm Calm - N/A   Scattered Clouds
1:32 AM -8.0 °F - -15.0 °F 71% 30.40 in 10.0 mi Calm Calm - N/A   Mostly Cloudy
1:52 AM -8.5 °F - -15.2 °F 73% 30.40 in 10.0 mi Calm Calm - N/A   Overcast
2:13 AM -9.6 °F - -15.9 °F 74% 30.40 in 10.0 mi Calm Calm - N/A   Mostly Cloudy
2:32 AM -10.3 °F - -16.4 °F 74% 30.41 in 10.0 mi Calm Calm - N/A   Mostly Cloudy
2:52 AM -11.2 °F - -16.6 °F 77% 30.41 in 10.0 mi Calm Calm - N/A   Mostly Cloudy
3:13 AM -10.7 °F - -16.6 °F 75% 30.41 in 10.0 mi Calm Calm - N/A   Overcast
3:32 AM -10.3 °F - -16.2 °F 75% 30.41 in 10.0 mi Calm Calm - N/A   Overcast
3:53 AM -10.3 °F - -16.6 °F 74% 30.41 in 10.0 mi Calm Calm - N/A   Mostly Cloudy
4:12 AM -11.2 °F - -17.1 °F 75% 30.41 in 10.0 mi Calm Calm - N/A   Scattered Clouds
4:32 AM -12.6 °F -22.3 °F -18.6 °F 75% 30.41 in 10.0 mi North 3.5 mph - N/A   Clear
4:53 AM -12.5 °F -22.1 °F -18.0 °F 76% 30.41 in 10.0 mi North 3.5 mph - N/A   Clear
5:12 AM -13.7 °F - -19.3 °F 76% 30.42 in 10.0 mi Calm Calm - N/A   Clear
5:32 AM -14.1 °F -23.9 °F -19.3 °F 77% 30.42 in 10.0 mi North 3.5 mph - N/A   Clear
5:53 AM -14.8 °F -24.8 °F -19.7 °F 79% 30.42 in 10.0 mi North 3.5 mph - N/A   Clear
6:12 AM -14.3 °F - -19.3 °F 78% 30.43 in 10.0 mi Calm Calm - N/A   Clear
6:33 AM -16.1 °F - -21.1 °F 78% 30.43 in 10.0 mi Calm Calm - N/A   Clear
6:52 AM -15.5 °F - -20.4 °F 79% 30.44 in 10.0 mi Calm Calm - N/A   Clear
7:12 AM -16.2 °F - -21.3 °F 78% 30.43 in 10.0 mi Calm Calm - N/A   Clear
7:33 AM -15.0 °F - -20.2 °F 77% 30.43 in 10.0 mi Calm Calm - N/A   Clear
7:52 AM -15.9 °F - -21.3 °F 77% 30.43 in 10.0 mi Calm Calm - N/A   Clear
8:13 AM -15.7 °F - -20.9 °F 77% 30.44 in 10.0 mi Calm Calm - N/A   Clear
8:32 AM -15.3 °F - -20.4 °F 78% 30.44 in 7.0 mi Calm Calm - N/A   Clear
8:52 AM -14.1 °F -23.9 °F -19.3 °F 77% 30.46 in 10.0 mi NNW 3.5 mph - N/A   Clear
9:13 AM -12.8 °F -24.9 °F -18.4 °F 76% 30.46 in 10.0 mi North 4.6 mph - N/A   Clear
9:32 AM -12.5 °F -22.1 °F -18.4 °F 75% 30.46 in 10.0 mi North 3.5 mph - N/A   Clear
9:53 AM -12.1 °F - -18.2 °F 74% 30.46 in 10.0 mi Calm Calm - N/A   Clear
10:12 AM -10.8 °F -20.2 °F -18.4 °F 69% 30.48 in 10.0 mi NNE 3.5 mph - N/A   Clear
10:32 AM -10.3 °F - -18.4 °F 67% 30.48 in 10.0 mi Calm Calm - N/A   Clear
10:53 AM -9.4 °F - -18.4 °F 65% 30.48 in 10.0 mi Calm Calm - N/A   Clear
11:12 AM -8.7 °F - -18.4 °F 62% 30.48 in 10.0 mi Calm Calm - N/A   Clear
11:32 AM -7.8 °F - -18.0 °F 61% 30.48 in 10.0 mi Calm Calm - N/A   Clear
11:53 AM -7.6 °F - -18.2 °F 60% 30.45 in 10.0 mi Calm Calm - N/A   Clear
12:13 PM -6.9 °F - -18.0 °F 58% 30.46 in 10.0 mi Calm Calm - N/A   Clear
12:32 PM -6.7 °F - -18.4 °F 57% 30.45 in 10.0 mi Calm Calm - N/A   Clear
12:52 PM -6.0 °F - -18.0 °F 56% 30.44 in 10.0 mi Calm Calm - N/A   Clear
1:12 PM -5.4 °F - -18.0 °F 55% 30.45 in 10.0 mi Calm Calm - N/A   Clear
1:32 PM -5.3 °F - -16.6 °F 58% 30.44 in 10.0 mi Calm Calm - N/A   Clear
1:52 PM -5.1 °F - -16.8 °F 57% 30.44 in 10.0 mi Calm Calm - N/A   Clear
2:12 PM -4.7 °F - -17.0 °F 56% 30.43 in 10.0 mi Calm Calm - N/A   Clear
2:32 PM -4.9 °F - -16.6 °F 57% 30.44 in 10.0 mi Calm Calm - N/A   Clear
2:52 PM -4.5 °F - -17.5 °F 54% 30.45 in 10.0 mi Calm Calm - N/A   Clear
3:12 PM -4.4 °F - -17.0 °F 55% 30.44 in 10.0 mi Calm Calm - N/A   Clear
3:33 PM -4.7 °F - -18.0 °F 53% 30.45 in 10.0 mi Calm Calm - N/A   Clear
3:52 PM -4.9 °F - -17.7 °F 54% 30.44 in 10.0 mi Calm Calm - N/A   Clear
4:12 PM -4.9 °F - -17.0 °F 56% 30.44 in 10.0 mi Calm Calm - N/A   Clear
4:33 PM -5.3 °F - -16.8 °F 58% 30.43 in 10.0 mi Calm Calm - N/A   Clear
4:52 PM -6.7 °F - -17.3 °F 60% 30.43 in 10.0 mi Calm Calm - N/A   Clear
5:12 PM -7.8 °F - -17.3 °F 63% 30.43 in 10.0 mi Calm Calm - N/A   Clear
5:33 PM -9.8 °F - -18.6 °F 65% 30.42 in 10.0 mi Calm Calm - N/A   Clear
5:52 PM -10.3 °F - -18.8 °F 66% 30.42 in 10.0 mi Calm Calm - N/A   Clear
6:12 PM -14.1 °F - -21.8 °F 68% 30.42 in 10.0 mi Calm Calm - N/A   Clear
6:32 PM -12.1 °F - -19.8 °F 68% 30.41 in 10.0 mi Calm Calm - N/A   Clear
6:53 PM -13.7 °F - -21.3 °F 69% 30.40 in 10.0 mi Calm Calm - N/A   Clear
7:12 PM -14.1 °F - -21.5 °F 69% 30.40 in 10.0 mi Calm Calm - N/A   Clear
7:32 PM -13.0 °F - -19.3 °F 73% 30.38 in 10.0 mi Calm Calm - N/A   Clear
7:52 PM -14.8 °F - -21.5 °F 72% 30.38 in 10.0 mi Calm Calm - N/A   Clear
8:13 PM -15.2 °F - -21.3 °F 74% 30.36 in 10.0 mi Calm Calm - N/A   Clear
8:32 PM -11.7 °F - -17.7 °F 75% 30.35 in 10.0 mi Calm Calm - N/A   Clear
8:52 PM -13.5 °F - -19.3 °F 75% 30.35 in 10.0 mi Calm Calm - N/A   Clear
9:12 PM -13.9 °F - -19.1 °F 77% 30.34 in 10.0 mi Calm Calm - N/A   Clear
9:32 PM -13.4 °F - -18.8 °F 77% 30.34 in 10.0 mi Calm Calm - N/A   Clear
9:52 PM -15.7 °F - -21.1 °F 77% 30.34 in 10.0 mi Calm Calm - N/A   Clear
10:13 PM -16.1 °F - -21.1 °F 78% 30.33 in 10.0 mi Calm Calm - N/A   Clear
10:32 PM -12.5 °F - -17.3 °F 79% 30.32 in 10.0 mi Calm Calm - N/A   Clear
10:52 PM -11.4 °F -25.1 °F -16.8 °F 77% 30.32 in 10.0 mi SSW 5.8 mph - N/A   Clear
11:13 PM -11.2 °F -24.8 °F -16.8 °F 76% 30.30 in 10.0 mi South 5.8 mph - N/A   Clear
11:32 PM -11.2 °F -23.0 °F -16.8 °F 76% 30.29 in 10.0 mi South 4.6 mph - N/A   Clear
11:52 PM -11.2 °F -23.0 °F -17.1 °F 75% 30.28 in 10.0 mi South 4.6 mph - N/A   Clear